Location: Los Angeles County Fire Department Headquarters Station and Training Facility
(34.0532°N, 118.1707°W)
Time: 23:57:52
(UTC+00:00)

Daily predictions for brighter satellites

Satellite Brightness Start Highest point End
(mag) Time Altitude Azimuth Time Altitude Azimuth Time Altitude Azimuth
SL-08 R/B 4.5 12:00:35 10° N 12:06:47 81° W 12:13:02 10° S
YAOGAN 6 3.4 12:08:05 10° NNE 12:11:37 53° E 12:15:09 10° S
Cosmos 2369 Rocket 3.4 12:11:01 10° NW 12:14:56 20° W 12:18:50 10° SW
FALCON 9 R/B 4.4 12:07:37 10° W 12:16:29 19° WSW 12:20:59 10° SSW
ATLAS 2A CENTAUR R/B 3.4 12:03:06 10° WSW 12:16:56 51° S 12:22:12 10° ESE
CZ-4C R/B 3.1 12:14:32 10° SSE 12:18:05 87° W 12:21:50 10° NNW
Cosmos 1110 Rocket 4.5 12:13:20 10° S 12:18:25 63° ESE 12:23:32 10° NNE
Nadezhda 3 Rocket 4.2 12:12:21 10° SSW 12:18:34 59° W 12:24:45 10° N
Cosmos 1190 Rocket 4.4 12:13:45 10° NNW 12:18:44 43° WSW 12:23:43 10° S
MINOTAUR 4 R/B 4.0 12:15:36 10° SSE 12:19:06 86° WSW 12:22:37 10° NNW
Cosmos 1869 3.3 12:16:15 10° NNW 12:20:06 58° W 12:23:52 10° S
CZ-4B R/B 3.9 12:15:43 10° NNE 12:20:55 73° ESE 12:26:11 10° S
